| time (UTC) | temp C | wind direction | speed KPH | gust KPH | rain 1hr cm | rain 24hr cm | rain mn cm | humidity % | barometer mb |
| 20260510164548 | 26 | 169 | 6.4 | 14.5 | 0.00 | 0.00 | 0.00 | 59 | 1012.2 |
| 20260510163045 | 25 | 151 | 6.4 | 14.5 | 0.00 | 0.00 | 0.00 | 60 | 1012.3 |
| 20260510161546 | 25 | 136 | 8.0 | 14.5 | 0.00 | 0.00 | 0.00 | 60 | 1012.3 |
| 20260510160044 | 23 | 125 | 4.8 | 14.5 | 0.00 | 0.00 | 0.00 | 63 | 1012.3 |
| 20260510154543 | 23 | 122 | 6.4 | 14.5 | 0.00 | 0.00 | 0.00 | 64 | 1012.4 |
| 20260510153053 | 23 | 159 | 6.4 | 14.5 | 0.00 | 0.00 | 0.00 | 68 | 1012.4 |
| 20260510151548 | 22 | 131 | 4.8 | 11.3 | 0.00 | 0.00 | 0.00 | 70 | 1012.4 |
| 20260510150108 | 21 | 144 | 1.6 | 11.3 | 0.00 | 0.00 | 0.00 | 72 | 1012.3 |
| 20260510144543 | 20 | 183 | 3.2 | 11.3 | 0.00 | 0.00 | 0.00 | 77 | 1012.4 |
| 20260510143041 | 17 | 161 | 0.0 | 6.4 | 0.00 | 0.00 | 0.00 | 81 | 1012.5 |
| 20260510141548 | 17 | 155 | 1.6 | 11.3 | 0.00 | 0.00 | 0.00 | 84 | 1012.7 |
| 20260510140047 | 16 | 134 | 3.2 | 8.0 | 0.00 | 0.00 | 0.00 | 87 | 1012.6 |
| 20260510134546 | 15 | 0 | 0.0 | 4.8 | 0.00 | 0.00 | 0.00 | 90 | 1012.6 |
| 20260510133046 | 15 | 126 | 1.6 | 4.8 | 0.00 | 0.00 | 0.00 | 92 | 1012.5 |
| 20260510131544 | 13 | 133 | 0.0 | 4.8 | 0.00 | 0.00 | 0.00 | 93 | 1012.5 |
| 20260510130042 | 13 | 0 | 0.0 | 3.2 | 0.00 | 0.00 | 0.00 | 94 | 1012.8 |
| 20260510124543 | 13 | 0 | 0.0 | 4.8 | 0.00 | 0.00 | 0.00 | 94 | 1012.8 |
| 20260510123046 | 12 | 0 | 1.6 | 4.8 | 0.00 | 0.00 | 0.00 | 94 | 1012.7 |
| 20260510121545 | 12 | 351 | 1.6 | 6.4 | 0.00 | 0.00 | 0.00 | 95 | 1012.5 |
| 20260510120044 | 12 | 0 | 1.6 | 6.4 | 0.00 | 0.00 | 0.00 | 94 | 1012.3 |
| 20260510114550 | 11 | 5 | 0.0 | 6.4 | 0.00 | 0.00 | 0.00 | 94 | 1012.1 |
| 20260510113046 | 11 | 25 | 1.6 | 11.3 | 0.00 | 0.00 | 0.00 | 94 | 1012.1 |
| 20260510111548 | 11 | 12 | 6.4 | 12.9 | 0.00 | 0.00 | 0.00 | 94 | 1011.8 |
| 20260510110046 | 11 | 351 | 3.2 | 8.0 | 0.00 | 0.00 | 0.00 | 94 | 1011.5 |
| 20260510104547 | 10 | 19 | 3.2 | 8.0 | 0.00 | 0.00 | 0.00 | 94 | 1011.5 |
| 20260510103047 | 10 | 346 | 3.2 | 8.0 | 0.00 | 0.00 | 0.00 | 93 | 1011.0 |
| 20260510101546 | 10 | 340 | 1.6 | 8.0 | 0.00 | 0.00 | 0.00 | 93 | 1011.2 |
| 20260510100049 | 10 | 15 | 1.6 | 9.7 | 0.00 | 0.00 | 0.00 | 93 | 1010.9 |
| 20260510094555 | 10 | 355 | 0.0 | 6.4 | 0.00 | 0.00 | 0.00 | 93 | 1010.8 |
| 20260510093045 | 10 | 10 | 1.6 | 8.0 | 0.00 | 0.00 | 0.00 | 93 | 1010.7 |
| 20260510091550 | 10 | 51 | 3.2 | 6.4 | 0.00 | 0.00 | 0.00 | 93 | 1010.8 |
| 20260510090049 | 10 | 5 | 1.6 | 11.3 | 0.00 | 0.00 | 0.00 | 93 | 1010.4 |
| 20260510084549 | 10 | 309 | 3.2 | 11.3 | 0.00 | 0.00 | 0.00 | 93 | 1011.0 |
| 20260510083055 | 10 | 0 | 0.0 | 0.0 | 0.00 | 0.00 | 0.00 | 93 | 1010.3 |
| 20260510081548 | 10 | 0 | 0.0 | 0.0 | 0.00 | 0.00 | 0.00 | 92 | 1010.1 |
| 20260510080048 | 10 | 0 | 0.0 | 0.0 | 0.00 | 0.00 | 0.00 | 92 | 1010.0 |
| 20260510074556 | 10 | 0 | 0.0 | 0.0 | 0.00 | 0.00 | 0.00 | 92 | 1010.0 |
| 20260510073053 | 10 | 0 | 0.0 | 0.0 | 0.00 | 0.00 | 0.00 | 92 | 1010.0 |
| 20260510071550 | 10 | 0 | 0.0 | 0.0 | 0.00 | 0.00 | 0.00 | 92 | 1009.7 |
| 20260510070053 | 10 | 0 | 0.0 | 0.0 | 0.00 | 0.00 | 0.00 | 92 | 1009.4 |
| 20260510064547 | 10 | 0 | 0.0 | 0.0 | 0.00 | 0.00 | 0.00 | 92 | 1009.5 |
| 20260510063046 | 10 | 0 | 0.0 | 0.0 | 0.00 | 0.00 | 0.00 | 92 | 1009.7 |
| 20260510061547 | 10 | 0 | 0.0 | 0.0 | 0.00 | 0.00 | 0.00 | 91 | 1009.8 |
| 20260510060045 | 11 | 0 | 0.0 | 0.0 | 0.00 | 0.00 | 0.00 | 91 | 1009.8 |
| 20260510054547 | 11 | 0 | 0.0 | 0.0 | 0.00 | 0.00 | 0.00 | 91 | 1009.9 |
| 20260510053049 | 11 | 0 | 0.0 | 0.0 | 0.00 | 0.00 | 0.00 | 91 | 1010.0 |
| 20260510051557 | 11 | 0 | 0.0 | 0.0 | 0.00 | 0.00 | 0.00 | 91 | 1010.2 |
| 20260510050047 | 11 | 0 | 0.0 | 1.6 | 0.00 | 0.00 | 0.00 | 91 | 1010.2 |
| 20260510044555 | 11 | 0 | 0.0 | 1.6 | 0.00 | 0.00 | 0.00 | 90 | 1010.3 |
| 20260510043048 | 11 | 0 | 0.0 | 3.2 | 0.00 | 0.00 | 0.00 | 90 | 1010.4 |
| 20260510041548 | 11 | 0 | 1.6 | 3.2 | 0.00 | 0.00 | 0.00 | 90 | 1010.4 |
| 20260510040052 | 11 | 0 | 0.0 | 3.2 | 0.00 | 0.00 | 0.00 | 90 | 1010.5 |
| 20260510034550 | 11 | 0 | 0.0 | 3.2 | 0.00 | 0.00 | 0.00 | 89 | 1010.4 |
| 20260510033058 | 11 | 5 | 0.0 | 3.2 | 0.00 | 0.00 | 0.00 | 89 | 1010.3 |
| 20260510031543 | 11 | 0 | 0.0 | 0.0 | 0.00 | 0.00 | 0.00 | 88 | 1010.3 |
| 20260510030053 | 12 | 0 | 0.0 | 0.0 | 0.00 | 0.00 | 0.00 | 88 | 1010.0 |
| 20260510024544 | 12 | 0 | 0.0 | 0.0 | 0.00 | 0.00 | 0.00 | 87 | 1009.9 |
| 20260510023044 | 12 | 0 | 0.0 | 0.0 | 0.00 | 0.00 | 0.00 | 87 | 1010.0 |
| 20260510021548 | 12 | 0 | 0.0 | 0.0 | 0.00 | 0.00 | 0.00 | 87 | 1010.0 |
| 20260510020044 | 12 | 0 | 0.0 | 0.0 | 0.00 | 0.00 | 0.00 | 86 | 1009.8 |
| 20260510014548 | 12 | 0 | 0.0 | 0.0 | 0.00 | 0.00 | 0.00 | 85 | 1009.7 |
| 20260510013049 | 12 | 0 | 0.0 | 3.2 | 0.00 | 0.00 | 0.00 | 84 | 1009.7 |
| 20260510011549 | 13 | 0 | 0.0 | 0.0 | 0.00 | 0.00 | 0.00 | 83 | 1009.6 |
| 20260510010044 | 13 | 0 | 0.0 | 1.6 | 0.00 | 0.00 | 0.00 | 82 | 1009.4 |
| 20260510004552 | 13 | 0 | 0.0 | 1.6 | 0.00 | 0.00 | 0.00 | 82 | 1009.3 |
| 20260510003043 | 14 | 0 | 0.0 | 3.2 | 0.00 | 0.00 | 0.00 | 81 | 1009.3 |
| 20260510001546 | 14 | 0 | 0.0 | 1.6 | 0.00 | 0.00 | 0.00 | 80 | 1009.4 |
| 20260510000046 | 15 | 0 | 0.0 | 0.0 | 0.00 | 0.00 | 0.00 | 79 | 1009.3 |
| 20260509234550 | 15 | 0 | 0.0 | 1.6 | 0.00 | 0.00 | 0.00 | 78 | 1009.3 |
| 20260509233051 | 15 | 0 | 0.0 | 3.2 | 0.00 | 0.00 | 0.00 | 78 | 1009.2 |
| 20260509231549 | 15 | 0 | 0.0 | 4.8 | 0.00 | 0.00 | 0.00 | 77 | 1009.2 |
| 20260509230050 | 15 | 40 | 0.0 | 4.8 | 0.00 | 0.00 | 0.00 | 77 | 1009.2 |
| 20260509224547 | 15 | 26 | 1.6 | 9.7 | 0.00 | 0.00 | 0.00 | 77 | 1009.1 |
| 20260509223051 | 15 | 45 | 1.6 | 8.0 | 0.00 | 0.00 | 0.00 | 77 | 1009.2 |
| 20260509221542 | 15 | 352 | 1.6 | 9.7 | 0.00 | 0.00 | 0.00 | 79 | 1009.2 |
| 20260509220054 | 15 | 32 | 1.6 | 8.0 | 0.00 | 0.00 | 0.00 | 79 | 1009.3 |
| 20260509214543 | 15 | 5 | 3.2 | 9.7 | 0.00 | 0.00 | 0.00 | 78 | 1009.3 |
| 20260509213117 | 16 | 27 | 3.2 | 9.7 | 0.00 | 0.00 | 0.00 | 77 | 1009.3 |
| 20260509211543 | 16 | 13 | 1.6 | 4.8 | 0.00 | 0.00 | 0.00 | 77 | 1009.2 |
| 20260509210100 | 16 | 74 | 1.6 | 8.0 | 0.00 | 0.00 | 0.00 | 76 | 1009.2 |
| 20260509204549 | 16 | 55 | 3.2 | 9.7 | 0.00 | 0.00 | 0.00 | 73 | 1009.3 |
| 20260509203049 | 17 | 5 | 1.6 | 14.5 | 0.00 | 0.00 | 0.00 | 73 | 1009.2 |
| 20260509201548 | 17 | 235 | 3.2 | 19.3 | 0.00 | 0.00 | 0.00 | 73 | 1009.2 |
| 20260509200050 | 16 | 352 | 3.2 | 19.3 | 0.00 | 0.00 | 0.00 | 74 | 1009.2 |
| 20260509194545 | 16 | 352 | 9.7 | 19.3 | 0.00 | 0.00 | 0.00 | 72 | 1009.1 |
| 20260509193045 | 17 | 5 | 3.2 | 17.7 | 0.00 | 0.00 | 0.00 | 71 | 1009.5 |
| 20260509191544 | 16 | 321 | 6.4 | 17.7 | 0.00 | 0.00 | 0.00 | 72 | 1009.7 |
| 20260509190047 | 16 | 9 | 6.4 | 16.1 | 0.00 | 0.00 | 0.00 | 72 | 1010.0 |
| 20260509184553 | 16 | 61 | 11.3 | 22.5 | 0.00 | 0.00 | 0.00 | 72 | 1010.2 |
| 20260509183046 | 16 | 19 | 4.8 | 16.1 | 0.00 | 0.00 | 0.00 | 70 | 1010.0 |
| 20260509181556 | 17 | 336 | 8.0 | 19.3 | 0.00 | 0.00 | 0.00 | 68 | 1010.1 |
| 20260509180048 | 18 | 14 | 6.4 | 14.5 | 0.00 | 0.00 | 0.00 | 67 | 1010.2 |
| 20260509174549 | 18 | 306 | 4.8 | 12.9 | 0.00 | 0.00 | 0.00 | 63 | 1010.2 |
| 20260509173049 | 18 | 218 | 3.2 | 8.0 | 0.00 | 0.00 | 0.00 | 64 | 1010.2 |
| 20260509171550 | 18 | 252 | 1.6 | 12.9 | 0.00 | 0.00 | 0.00 | 66 | 1010.1 |
| 20260509170051 | 18 | 277 | 1.6 | 11.3 | 0.00 | 0.00 | 0.00 | 66 | 1010.1 |